DELTA 1 DEB, 18906

Orbit data source: Space-Track

DELTA 1 DEB, 18906 is space debris in SSO originally from a launch on Tue, 06 Nov 1973 UTC launched from the Air Force Western Test Range (AFWTR). Debris objects in space refer to the collection of defunct objects orbiting the Earth. Examples of debris include non-operational satellites, rocket bodies, and fragments generated from explosions, collisions, or faulty payload assembly.

Loading next visibility...
Identifier
18906, 1973-086HB
Orbit
SSO
Country
Flag of USUS
Related business
Manufacturer
Unknown
Mission
Spacecraft
Bus & Motor
Unknown
Mass
Unknown
Launch date (UTC)
1973-11-06 (53 years ago)
Launch vehicle
Unknown
Launch site
Air Force Western Test Range (AFWTR)
Object type
Payload
Rocket body
Debris
Shape & HBR
Unknown shape, 0.1 m
Radar Cross Section
Medium (>0.1 m² and <1 m²)

Expand to show TLE details & history
Last TLE update: 23 hours ago

TLE from 23 hours ago
0 DELTA 1 DEB
1 18906U 73086HB  26206.46059017 -.00000046  00000-0  13654-4 0  9990
2 18906 102.2514  86.2781 0089261  29.1917 145.7461 12.55923273776869
Epoch: 2026-07-25T11:03Z
TLE epoch observation values (Epoch: 2026-07-25T11:03:14.990Z)
Latitude
4.30928°
Longitude
158.22607°
Altitude
1,499.807 km
Speed
7.088 km/s
True Right ascension
17h 48m 50s
True Declination
4° 17' 10"
Sunlit
Object was in full shadow at epoch
Visualization orbit readout
Latitude
Unknown
Longitude
Unknown
Altitude
Unknown
Speed
Unknown
Apparent Right ascension
Unknown
Apparent Declination
Unknown
Sunlit
N/A
Visualization observer readout
Local Sidereal Time
23:17:43
Azimuth
Unknown
Elevation
Unknown
Doppler factor
Unknown
Orbital elements
Apogee altitude
1,507.148 km
Perigee altitude
1,367.624 km
Semi-major axis
7,815.523 km
Eccentricity
0.00893
Inclination
102.2514°
RAAN
86.2781°
Arg. of periapsis
29.1917°
True anomaly
146.31655°
Mean anomaly
145.7461°
Eccentric anomaly
146.03185°
Mean motion
3.14128 °/min
Orbital period
114.6 mins
BSTAR
0.000013654
Loading maneuver chart data...
Computing Atmospheric mass density...
Loading historical data...
Loading historical data...
Loading historical data...
Loading historical data...
Loading historical data...
Loading historical data...
Loading historical data...

Documentation

Showing up to 5 results
|